www.pogodaiklimat.ru

АРХИВ ПОГОДЫ в Солт-Лейк-Сити

Время (UTC), дата Ветер
(напр.,м/с)
 
Видим.   Явления Облачность Т
(С)
Тd
(С)
f
(%)
Тe
(С)
Тes
(С)
Комфортность

P
(гПа)

Po
(гПа)
Тmin
(С)
Tmax
(С)
R
(мм)
SD
(см)
08:54 14.09 ЮВ  16 км    ясно  +15.0  +6.1  55  +14  +14    1017.2  875.1         
09:54 14.09 Ю  16 км    ясно  +15.6  +5.6  51  +15  +15    1017.3  875.1         
10:54 14.09 ЮВ  16 км    ясно  +14.4  +5.6  55  +13  +13    1017.7  875.1  +14.4  +18.9     
11:54 14.09 ЮВ  16 км    2/0 6600 м
[верхняя] 
+13.9  +5.6  57  +13  +13    1018.1  875.4         
12:54 14.09 ЮВ  16 км    2/0 6600 м
[верхняя] 
+15.0  +6.7  58  +14  +14    1019.0  876.0         
13:54 14.09 ЮВ  16 км    2/0 6600 м
[верхняя] 
+18.3  +5.6  43  +18  +18    1018.6  876.0         
14:54 14.09 ЮВ  16 км    2/0 6600 м
[верхняя] 
+20.6  +5.6  37  +22  +23  комфорт  1018.8  876.0         
15:54 14.09 ЮВ  16 км    2/0 6600 м
[верхняя] 
+22.8  +4.4  30  +23  +28  комфорт  1018.5  876.0         
16:54 14.09 ЮВ  16 км    2/0 6600 м
[верхняя] 
+25.0  +3.3  24  +24  +31  комфорт  1017.5  875.4  +13.3  +25.0     
17:54 14.09 нст  16 км    2/0 6600 м
[верхняя] 
+27.2  +3.3  21  +26  +35  жарко  1016.9  874.8         
18:54 14.09 нст  16 км    2/2 60 м
[верхняя] 
+28.9  +1.1  17  +27  +35  жарко  1016.0  874.2         
19:54 14.09 Ю  16 км    2/0 6600 м
[верхняя] 
+30.6  0.0  14  +28  +35  жарко  1014.8  873.4         
20:54 14.09 СЗ  16 км    2/0 6600 м
[верхняя] 
+31.1  -1.1  12  +28  +35  жарко  1013.8  872.5         
21:54 14.09 С  16 км    2/0 6600 м
[верхняя] 
+31.7  +1.7  15  +29  +33  жарко  1013.1  871.9         
22:54 14.09 С  16 км    2/0 6600 м
[верхняя] 
+31.1  +1.7  15  +28  +31  жарко  1013.0  871.6  +25.0  +32.2     
23:54 14.09 С  16 км    2/0 6900 м
[верхняя] 
+28.9  +3.9  20  +27  +29  жарко  1012.9  871.3         
00:54 15.09 С  16 км    2/0 6900 м
[верхняя] 
+24.4  +8.3  36  +25  +25  комфорт  1013.1  871.3         
01:54 15.09 ЮВ  16 км    2/0 6900 м
[верхняя] 
+23.9  +5.0  29  +24  +24  комфорт  1012.8  871.3         
02:54 15.09 Ю  16 км    ясно  +22.2  +4.4  31  +22  +22  комфорт  1012.8  871.3         
03:54 15.09 Ю  16 км    ясно  +22.2  +3.3  29  +22  +22  комфорт  1012.5  871.3         
04:54 15.09 ЮВ  16 км    ясно  +21.1  +2.8  30  +21  +21  комфорт  1012.3  871.3  +20.6  +31.1     
05:54 15.09 ЮВ  16 км    ясно  +22.8  +1.1  24  +22  +22  комфорт  1011.7  871.1         
06:54 15.09 ЮВ  16 км    ясно  +20.0  +1.7  30  +20  +20    1011.9  871.1         
07:54 15.09 ЮВ  16 км    ясно  +18.9  +2.8  34  +19  +19    1011.7  871.1         
08:54 15.09 ЮВ  16 км    ясно  +20.0  +3.3  33  +20  +20    1010.9  870.5         
09:54 15.09 Ю  16 км    ясно  +18.9  +4.4  38  +19  +19    1010.7  870.5         
10:54 15.09 ЮВ  16 км    ясно  +19.4  +2.8  33  +19  +19    1010.5  870.2  +18.3  +22.8     
11:54 15.09 ЮВ  16 км    2/0 6600 м
[верхняя] 
+20.0  +1.7  30  +20  +20    1010.8  870.2         
12:54 15.09 ЮВ  7
{11} 
16 км    2/0 6600 м
[верхняя] 
+21.7  +0.6  25  +21  +21  комфорт  1011.2  870.5         
13:54 15.09 ЮВ  16 км    2/0 7500 м
[верхняя] 
+21.1  +3.3  31  +21  +21  комфорт  1011.7  870.8         
14:54 15.09 ЮВ  16 км    2/0 7500 м
[верхняя] 
+23.9  +4.4  28  +24  +24  комфорт  1011.7  870.8         
15:54 15.09 Ю  16 км    2/0 7500 м
[верхняя] 
+27.8  0.0  16  +25  +26  комфорт  1011.1  870.5         
16:54 15.09 Ю  7
{11} 
16 км    2/0 7500 м
[верхняя] 
+30.0  -1.7  13  +27  +29  жарко  1010.6  870.2  +18.9  +30.0     
17:54 15.09 Ю  8
{13} 
16 км    2/0 2700 м
[средняя верхняя] 
+31.1  -2.2  12  +28  +29  жарко  1009.6  869.6         
18:54 15.09 ЮВ  16 км    2/0 3000 м
[средняя верхняя] 
+31.7  -2.2  11  +28  +30  жарко  1008.9  869.0         
19:54 15.09 ЮВ  16 км    5/0 3000 м
[средняя верхняя] 
+32.2  -2.8  10  +28  +30  жарко  1007.8  867.9         
20:54 15.09 ЮВ  9
{13} 
16 км    5/0 3000 м
[средняя верхняя] 
+32.8  -3.3  10  +29  +29  жарко  1006.6  867.3         
21:54 15.09 Ю  7
{11} 
16 км    5/0 3000 м
[средняя верхняя] 
+32.8  -3.3  10  +29  +30  жарко  1005.9  866.4         
22:54 15.09 Ю  16 км    8/0 3000 м
[средняя верхняя] 
+32.2  -2.8  10  +28  +29  жарко  1005.5  866.1  +30.0  +33.3     
23:54 15.09 Ю  5
{9} 
16 км    8/0 3000 м
[средняя верхняя] 
+31.1  -3.3  11  +28  +28  жарко  1005.2  865.8         
00:54 16.09 Ю  16 км    5/0 3600 м
[средняя] 
+27.8  -1.7  14  +25  +25  комфорт  1005.3  865.8         
01:54 16.09 ЮВ  16 км    2/0 3600 м
[средняя] 
+25.0  +2.2  23  +24  +24  комфорт  1005.9  865.8         
02:54 16.09 ЮВ  16 км    2/0 3600 м
[средняя] 
+25.6  +0.6  19  +24  +24  комфорт  1005.8  866.1         
03:54 16.09 ЮВ  16 км    2/0 3600 м
[средняя] 
+24.4  +1.7  23  +23  +23  комфорт  1005.9  866.4         
04:54 16.09 Ю  16 км    2/0 3600 м
[средняя] 
+25.6  +4.4  25  +25  +25  комфорт  1005.7  866.7  +23.9  +32.2     
05:54 16.09 Ю  16 км    5/0 3600 м
[средняя] 
+25.6  +3.9  25  +25  +25  комфорт  1005.8  866.7         
06:54 16.09 Ю  16 км    5/0 3600 м
[средняя] 
+24.4  +4.4  27  +24  +24  комфорт  1006.2  867.3         
07:54 16.09 ЮВ  16 км    5/0 3600 м
[средняя] 
+23.3  +5.0  30  +23  +23  комфорт  1006.2  867.0         

 

Местоположение метеостанции Salt Lake City International Airport: широта 40.7707 долгота -111.9650 высота над уровнем моря 1288 м.

В архиве по умолчанию представлена погода в Солт-Лейк-Сити за последние 1-2 суток. Обновление информации о фактической погоде в базе происходит ежечасно! Архивные данные за месяц целиком и за предыдущие месяцы Вы можете получить, выбрав интересующий диапазон дат из раскрывающегося списка и нажав кнопку "Ввод!".

Внимание! Архив погоды МЕТАР в базе сайта в настоящее время начинается c 1 января 2011 г. Нет смысла пытаться выбрать более раннюю дату.

Внимание! Время в таблицах - всемирное. Для получения местного времени необходимо прибавить поправку, которая в Солт-Лейк-Сити равна -7 ч.

Ветер - указаны скорость ветра в м/с и направление, откуда дует ветер: С - северный, СВ - северо-восточный, В - восточный, ЮВ - юго-восточный, Ю - южный, ЮЗ - юго-западный, З - западный, СЗ - северо-западный.
Видимость - горизонтальная дальность видимости в метрах или километрах. При видимости от 1 до 10 км при отсутствии осадков обычно наблюдается дымка, при ухудшении видимости до 1 км и менее - туман. В сухую погоду видимость может ухудшаться дымом, пылью или мглою.
Атмосферные явления - указаны явления, наблюдавшиеся в указанный момент времени.
Облачность - указаны через наклонную черту верхняя и нижняя облачность в баллах и высота нижней границы облаков в метрах. Внимание: облачность, как и прочие метеорологические величины в США измеряются автоматическими метеостанциями. Указанные значения в баллах носят условный характер и показывают процент времени, в течение которого, в среднем, лазерный луч высотомера отражался от облаков обратно.
T - Температура воздуха - температура, измеренная на высоте 2 м над землей.
Td - Температура точки росы - температура, при понижении до которой содержащийся в воздухе водяной пар достигнет насыщения.
f - Относительная влажность воздуха - влажноcть воздуха, измеренная на высоте 2 м над землей.
Te - Эффективная температура - температура, которую ощущает одетый по сезону человек в тени. Характеристика душности погоды. При расчете учитывается влияние влажности воздуха и скорости ветра на теплоощущения человека.
Tes - Эффективная температура на солнце - температура, которую ощущает человек, с поправкой на солнечный нагрев. Характеристика знойности погоды. Зависит от высоты солнца над горизонтом, облачности и скорости ветра. Ночью, в пасмурную погоду, а также при ветре 12 м/с и более поправка равна нулю.
P - Атмосферное давление - приведенное к уровню моря атмосферное давление.
Po - Атмосферное давление - измеренное на уровне метеостанции атмосферное давление.
Tmin - Минимальная температура - минимум температуры воздуха на высоте 2 м над землей.
Tmax - Максимальная температура - максимум температуры воздуха на высоте 2 м над землей.
R - Количество осадков - Количество выпавших осадков за 3 или 6 часов, мм.
SD - Снежный покров - Высота снежного покрова, см.